Location: Downe
(51.3167°N, 0.0500°E)
Time: 08:44:08
(UTC+00:00)

Cosmos 1328 Rocket - Pass Details

Date: 17 November 2019
Orbit: 600 x 628 km, 82.5° (Epoch: 14 December)

Event Time Altitude Azimuth Distance (km) Brightness Sun altitude
Exits shadow 06:01:13 - 339° (NNW) 2,542 6.4 -12.1°
Reaches altitude 10° 06:02:45 10° 332° (NNW) 1,970 5.7 -11.9°
Maximum altitude 06:06:35 31° 270° (W) 1,070 4.3 -11.3°
Drops below altitude 10° 06:10:22 10° 208° (SSW) 1,945 6.0 -10.8°
Sets 06:12:44 0° 198° (SSW) 2,841 7.0 -10.4°
